Regional Weather Roundup
Issued by NWS Sterling, VA

Home | Current Version | Previous Version | Graphics & Text | Print | Product List | Glossary On
Versions: 1 2 3 4 5 6 7 8 9 10 11 12 13 14 15 16 17 18 19 20 21 22 23 24 25 26 27 28 29 30 31 32 33 34 35 36 37 38 39 40 41 42 43 44 45 46 47 48 49 50
000
ASUS41 KLWX 262310
RWRLWX

REGIONAL WEATHER ROUNDUP
NATIONAL WEATHER SERVICE BALTIMORE MD/WASHINGTON DC
700 PM EDT TUE AUG 26 2014

Note: "FAIR" indicates few or no clouds below 12,000 feet
with no significant weather and/or obstructions to visibility.
 TC=TEMPERATURE CELSIUS

 * =Non NWS site. Station does not report precipitation (e.g. rain,
    snow, etc.), thunder, or fog.

DCZ001-MDZ009-015-VAZ040>042-051-053>054-270000-
WASHINGTON METRO
  /KDAA//-FT BELVOIR

CITY           SKY/WX    TMP DP  RH WIND       PRES   REMARKS
WASHINGTON NAT FAIR      85  61  44 E8        30.10R
DULLES         FAIR      80  61  52 SE5       30.10R
ANDREWS AFB    FAIR      80  65  59 SE3       30.10S
QUANTICO       FAIR      82  65  56 E5        30.10R
COLLEGE PARK*  FAIR      82  63  51 SE3       30.10R
LEESBURG*      FAIR      81  66  61 W5        30.11S
GAITHERSBURG*  FAIR      77  63  61 CALM      30.14R

$$

MDZ006>007-011-014-270000-
BALTIMORE METRO

CITY           SKY/WX    TMP DP  RH WIND       PRES   REMARKS
BWI AIRPORT    FAIR      82  61  48 CALM      30.09S
MD SCIENCE CTR   N/A     83  60  45 MISG      30.09S
ANNAPOLIS      FAIR      83  63  50 CALM      30.09S
FORT MEADE*    FAIR      75  64  69 CALM      30.12R

$$

MDZ012-015-019>023-270000-
MARYLAND EASTERN SHORE

CITY           SKY/WX    TMP DP  RH WIND       PRES   REMARKS
OCEAN CITY     FAIR      73  65  75 SE7       30.11S
SALISBURY      FAIR      77  58  51 E8        30.10S
BAY BRIDGE AP*   N/A     81  63  54 CALM      30.08F
CAMBRIDGE*     FAIR      81  63  54 E5        30.08F
EASTON*        CLEAR     84  64  51 SE6       30.12F

$$

MDZ017>025-270000-
SOUTHERN MARYLAND

CITY           SKY/WX    TMP DP  RH WIND       PRES   REMARKS
PATUXENT RIVER FAIR      79  65  62 NE6       30.08F
ST INIGOES     FAIR      79  64  60 CALM      30.08S
LEONARDTOWN*   FAIR      79  63  57 CALM      30.11S

$$

MDZ003>005-270000-
NORTH CENTRAL MARYLAND

CITY           SKY/WX    TMP DP  RH WIND       PRES   REMARKS
FREDERICK*     CLEAR     84  64  51 CALM      30.12S
HAGERSTOWN APT FAIR      81  58  45 SW7       30.11S
WESTMINSTER*   FAIR      82  61  47 CALM      30.12R

$$

MDZ501>502-270000-
WESTERN MARYLAND

CITY           SKY/WX    TMP DP  RH WIND       PRES   REMARKS
OAKLAND*       FAIR      72  45  37 SE5       30.21S
CUMBERLAND*    FAIR      88  52  29 CALM      30.14R

$$

VAZ025>031-270000-
SHENANDOAH VALLEY

CITY           SKY/WX    TMP DP  RH WIND       PRES   REMARKS
WINCHESTER*    FAIR      79  61  53 SE6       30.12F
STAUNTON*      FAIR      78  56  47 SE6       30.17R

$$

WVZ021-048>050-054>055-270000-
EASTERN WEST VIRGINIA PANHANDLE

CITY           SKY/WX    TMP DP  RH WIND       PRES   REMARKS
MARTINSBURG    FAIR      80  58  46 S5        30.12S
PETERSBURG*    NOT AVBL

$$

VAZ036>039-050-270000-
CENTRAL FOOTHILLS

CITY           SKY/WX    TMP DP  RH WIND       PRES   REMARKS
CHARLOTTESVILL FAIR      80  62  54 CALM      30.12R
ORANGE*        FAIR      81  61  50 CALM      30.13R

$$

VAZ055>057-270000-
NORTH AND CENTRAL PIEDMONT

CITY           SKY/WX    TMP DP  RH WIND       PRES   REMARKS
FREDERICKSBRG* FAIR      83  62  48 NE5       30.09R
STAFFORD*      FAIR      80  68  68 CALM      30.14R

$$

NCZ024-NYZ072-PAZ021-071-VAZ022-071-270000-
OTHER REGIONAL OBSERVATIONS

CITY           SKY/WX    TMP DP  RH WIND       PRES   REMARKS
NEW YORK CITY  FAIR      78  61  55 VRB3      30.11S
PHILADELPHIA   FAIR      83  64  52 S8        30.08S
PITTSBURGH     FAIR      82  62  50 SW6       30.11F
ROANOKE        PTSUNNY   76  60  57 CALM      30.17R
RICHMOND       FAIR      80  56  43 E7        30.09S
RALEIGH        MOCLDY    78  61  55 NE8       30.10R

$$

ANZ530>537-270000-
MARINE OBSERVATIONS

STATION/POSITION TIME  TEMP    WIND        PRES
                       AIR SEA DIR/SP/G
                 (UTC) (F)     (DEG/KT/KT) (MB)
THOMAS PT LIGHT  2300   80 78  360/  3/  3 1019.8F
BALT KEY BRIDGE  2300   87     140/  5/  5 1018.5S
COVE POINT       2300   79      20/  7/ 10 1018.6F
LEWISETTA        2300   79 80  160/  3/  3 1018.5S
SOLOMONS ISLAND  2300      81                N/A
PINEY POINT      2300          170/  5/  6   N/A

$$



USA.gov is the U.S. government's official web portal to all federal, state and local government web resources and services.